Vancouver Int'l Airport, British Columbia

Past 24 Hour Conditions

Date / Time
(PDT)
Conditions Temp
(°C)
Humidity
(%)
Dew Point
(°C)
Wind
(km/h)
Pressure
(kPa)
Visibility
(km)
27 March 2015
12:00 Mostly Cloudy 14 77 10 ESE 18 101.6 32
11:00 Mostly Cloudy 13 80 10 ESE 13 101.6 32
10:00 Mostly Cloudy 12 83 9 E 7 101.6 32
9:00 Mostly Cloudy 11 87 9 SSE 5 101.6 32
8:00 Mostly Cloudy 9 95 9 E 10 101.6 32
7:00 Mostly Cloudy 10 92 8 E 4 101.7 48
6:00 Mostly Cloudy 8   97 8 NNE 4 101.7 48
5:00 Mostly Cloudy 9 98 9 NNE 4 101.7 48
4:00 Partly Cloudy 9 95 8 E 7 101.8 48
3:00 Partly Cloudy 9 95 9 ESE 13 101.9 48
2:00 Partly Cloudy 10 89 9 E 10 102.0 48
1:00 Mostly Cloudy 11 89 10 ENE 11 102.0 48
00:00 Mostly Cloudy 12 83 9 ENE 8 102.1 48
26 March 2015
23:00 Partly Cloudy 12 85 10 E 9 102.1 48
22:00 Mostly Cloudy 13 85 10 N 3 102.1 48
21:00 Mostly Cloudy 13 84 10 NNE 3 102.1 48
20:00 Mostly Cloudy 13 82 10 N 3 102.1 48
19:00 Mostly Cloudy 13 86 11 WNW 5 102.2 48
18:00 Mostly Cloudy 15 75 11 WSW 9 102.2 48
17:00 Mostly Cloudy 16 75 12 WNW 5 102.2 32
16:00 Mostly Cloudy 16 75 11 SW 7 102.3 32
15:00 Mostly Cloudy 16 77 12 WSW 9 102.3 32
14:00 Mostly Cloudy 17   71 12 ESE 9 102.4 32
13:00 Mostly Cloudy 16 78 12 E 10 102.5 24
12:00 Mostly Cloudy 15 74 11 E 14 102.5 24
N/A Not available
↑ Highest temperature
↓ Lowest temperature

If you require additional historical weather information, please visit Climate Data Online.

What we are doing

Date modified: